Location: Unspecified
(0.0000°N, 0.0000°E)
Time: 15:01:46
(UTC+00:00)

Explorer 11/Cluster Stage 4 - Pass Details

Date: 02 March 2024
Orbit: 465 x 1219 km, 28.8° (Epoch: 24 April)

Event Time Altitude Azimuth Distance (km) Brightness Sun altitude
Exits shadow 03:16:00 11° 37° (NE) 2,824 9.6 -43.6°
Drops below altitude 10° 03:16:34 10° 42° (NE) 2,873 9.7 -43.5°
Sets 03:21:05 0° 70° (ENE) 3,650 10.6 -42.4°
